This demonstration page uses our WeatherBlox Daily Observations layout. Learn more.

39.29038, -76.61219

Hourly Observations for September 1, 2019

Temp ( °F °C ) Dew Point ( °F °C ) Humidity (%) Winds ( mph kmh ) Pressure ( in mb ) Visibility ( mi km ) Precip ( " mm )
12:54 am 00:54 undefined 73 22.8 64 17.8 74 74 undefined N/A 30.27 1025 N/A 0 0
1:54 am 01:54 undefined 73 22.8 65 18.3 76 76 undefined N/A 30.27 1025 N/A 0 0
2:54 am 02:54 undefined 72 22.2 65 18.3 79 79 undefined N/A 30.27 1025 N/A 0 0
3:54 am 03:54 undefined 72 22.2 64 17.8 76 76 undefined N/A 30.27 1025 N/A 0 0
4:54 am 04:54 undefined 71 21.7 61 16.1 71 71 undefined N/A 30.27 1025 N/A 0 0
5:54 am 05:54 undefined 71 21.7 61 16.1 71 71 undefined N/A 30.27 1025 N/A 0 0
6:54 am 06:54 undefined 70 21.1 60 15.6 71 71 undefined N/A 30.28 1025 N/A 0 0
7:54 am 07:54 undefined 70 21.1 60 15.6 71 71 undefined N/A 30.28 1026 N/A 0 0
8:54 am 08:54 undefined 72 22.2 61 16.1 68 68 undefined N/A 30.29 1026 N/A 0 0
9:54 am 09:54 undefined 74 23.3 63 17.2 69 69 undefined N/A 30.3 1026 N/A 0 0
10:54 am 10:54 undefined 77 25 63 17.2 62 62 undefined N/A 30.3 1026 N/A 0 0
11:54 am 11:54 undefined 79 26.1 65 18.3 62 62 undefined N/A 30.3 1026 N/A 0 0
12:54 pm 12:54 undefined 78 25.6 64 17.8 62 62 undefined N/A 30.28 1026 N/A 0 0
1:54 pm 13:54 undefined 79 26.1 64 17.8 60 60 undefined N/A 30.27 1025 N/A 0 0
2:54 pm 14:54 undefined 81 27.2 65 18.3 58 58 undefined N/A 30.24 1024 N/A 0 0
3:54 pm 15:54 undefined 82 27.8 66 18.9 58 58 undefined N/A 30.22 1023 N/A 0 0
4:54 pm 16:54 undefined 81 27.2 65 18.3 58 58 undefined N/A 30.21 1023 N/A 0 0
5:54 pm 17:54 undefined 80 26.7 65 18.3 60 60 undefined N/A 30.21 1023 N/A 0 0
6:54 pm 18:54 undefined 79 26.1 64 17.8 60 60 undefined N/A 30.21 1023 N/A 0 0
7:54 pm 19:54 undefined 77 25 63 17.2 62 62 undefined N/A 30.21 1023 N/A 0 0
8:54 pm 20:54 undefined 76 24.4 65 18.3 69 69 undefined N/A 30.21 1023 N/A 0 0
9:54 pm 21:54 undefined 75 23.9 67 19.4 76 76 undefined N/A 30.2 1023 N/A 0 0
10:54 pm 22:54 undefined 74 23.3 67 19.4 79 79 undefined N/A 30.19 1023 N/A 0 0
11:54 pm 23:54 undefined 73 22.8 68 20 84 84 undefined N/A 30.19 1022 N/A 0 0

Powered by AerisWeather